sat.trackr.live / text

‹ back to catalog

STARLINK-4272

NORAD 52866 · 2022-062AN

PAYLOAD ACTIVE UNKNOWN

§ Identity

Operator
Country
US
Launch date
2022-06-17
Launch site
AFETR
Launch vehicle
Mass (kg)
RCS (m²)

Purposes: comms

External: N2YO · Heavens-Above · Gunter

§ Orbital elements

Epoch: 2026-05-25T02:29:24.233280Z

Period
95.44 min
Inclination
53.2129°
Eccentricity
0.0001562
Mean motion
15.08846412 rev/d
Perigee alt
538.6 km
Apogee alt
540.8 km
Semi-major
6,917.9 km
B*
-4.2226e-5
RAAN
41.0846°
Arg perigee
63.8605°
Mean anomaly
296.2547°
Rev number
21,746

§ Raw data

STARLINK-42721 52866U 22062AN  26145.10375270 -.00000960  00000+0 -42226-4 0  99982 52866  53.2129  41.0846 0001562  63.8605 296.2547 15.08846412217460

JSON: /api/v1/satellites/52866 · /tle

For live sub-satellite position, see the globe view (requires WebGL).

§ Visibility from observer

Set your observer location to see the next 7 days of passes ≥ 10°. The values pass through the URL so the page stays shareable.

No JS? Fill the form by hand. The geolocation button needs JavaScript.